Showing default

YAOGAN-43 02B, 60946

Orbit data source: Space-Track

YAOGAN-43 02B, 60946 is a payload satellite owned by PLA GAD (CN) in LEO that was launched on Tue, 03 Sep 2024 UTC via a CHANG ZHENG 4B launch vehicle from the Xichang Space Center, China (XSC). Payloads include a variety of satellites, spacecraft, and rockets equipped with specific instruments for various scientific and technological missions. These include communications satellites like Starlink; space stations such as the ISS; scientific satellites like the Hubble; Earth observation satellites from companies like Planet Labs, Umbra, and HawkEye 360; GPS; miniature CubeSats for education and research; and military/defense satellites.

Loading next visibility...
YAOGAN-43 02B details
Identifier
60946, 2024-156B
Orbit
LEO
Last TLE update7 hours ago
Origin
Flag of CNPLA GAD (CN / PRC)
ManufacturerSAST
MissionOperational spacecraft
Bus & MotorUnknown
Mass~300 kg wet, ~300 kg dry
Launch date (UTC)
2024-09-03 (4 months ago)
Launch vehicle
CHANG ZHENG 4B
Launch site
Xichang Space Center, China (XSC)
Object type
Payload
Rocket body
Debris
Shape & HBRUnknown
Radar Cross SectionLarge (>1 m²)

Expand to show TLE details & history

TLE from 7 hours ago
0 YAOGAN-43 02B
1 60946U 24156B   25014.93334573  .00013750  00000-0  57322-3 0  9990
2 60946  34.9930 217.4591 0006520 307.3593  52.6527 15.22865045 20385
Epoch: 2025-01-14T22:24Z
Definitive object data (Epoch: 2025-01-14T22:24:01.071Z)
Latitude-0.00002°
Longitude126.82167°
Altitude493.393 km
Speed7.622 km/s
True Right ascension14h 29m 50s
True Declination0° 00' 00"
Sunlit
Object was in daylight at TLE epoch
Visualization TLE readout
Latitude30.25705°
Longitude-110.93175°
Altitude501.329 km
Speed7.616 km/s
Apparent Right ascension20h 31m 23s
Apparent Declination-4° 02' 44"
Sunlit
Object is in daylight
Visualization observer readout
Local Sidereal Time05:51:59
Azimuth304.377° NW
Elevation-39.245°
Doppler factor1
Orbital elements
Apogee altitude504.94 km
Perigee altitude495.97 km
Semi-major axis6,878.592 km
Eccentricity0.000652
Inclination34.993°
RAAN217.4591°
Arg. of periapsis307.3593°
True anomaly52.71212°
Mean anomaly52.6527°
Eccentric anomaly52.68241°
Mean motion3.80447 °/min
BSTAR0.00057322
Orbital period94.63 mins
Loading maneuver chart data...
Loading historical data...
Loading historical data...
Loading historical data...
Loading historical data...
Loading historical data...
Loading historical data...
Loading historical data...

YAOGAN-43 02B Visibility forecast

Observer location: undefined°, undefined

Span
Click to sort rows by Start time (UTC) header in descending order
Start Az.
Max El. time (UTC)
Max El. Az.
Max El.
End time (UTC)
End Az.
6 mins2025-01-15 17:31:48.474Z216.864° SW2025-01-15 17:34:48.474Z162.444° S22.49°2025-01-15 17:37:48.474Z108.954° ESE
6 mins2025-01-15 19:11:48.474Z238.652° WSW2025-01-15 19:13:48.474Z194.728° SSW31.361°2025-01-15 19:17:48.474Z108.918° ESE
5 mins2025-01-15 20:51:48.474Z238.461° WSW2025-01-15 20:53:48.474Z189.545° SSW25.924°2025-01-15 20:56:48.474Z134.204° SE
|